Location: Allen Fire Department Station 4
(33.1073°N, 96.6988°W)
Time: 10:04:13
(UTC+00:00)

Cosmos 1782 - Pass Details

Date: 03 December 2021
Orbit: 537 x 548 km, 82.5° (Epoch: 23 January)

Event Time Altitude Azimuth Distance (km) Brightness Sun altitude
Rises 23:49:55 0° 178° (S) 2,700 6.6 -6.6°
Reaches altitude 10° 23:52:05 10° 174° (S) 1,811 5.7 -7.1°
Maximum altitude 23:56:01 61° 94° (E) 621 2.8 -7.8°
Drops below altitude 10° 23:59:58 10° 14° (NNE) 1,820 5.1 -8.6°
Sets 00:02:09 0° 11° (N) 2,715 6.0 -9.0°
